Weather History for Sarasota, FL

Change the Weather History Date:

Saturday, December 7, 2013

  Actual Average Record
Temperature  
Mean Temperature 73 °F 65 °F  
Max Temperature 82 °F 75 °F 86 °F (1972)
Min Temperature 64 °F 55 °F 30 °F (1937)
Degree Days  
Heating Degree Days 0 3  
Month to date heating degree days 1 18  
Since 1 July heating degree days 19 51  
Cooling Degree Days 8 3  
Month to date cooling degree days 41 21  
Year to date cooling degree days 3669 3321  
Growing Degree Days 23 (Base 50)    
Moisture  
Dew Point 66 °F    
Average Humidity 82    
Maximum Humidity 100    
Minimum Humidity 58    
Precipitation  
Precipitation 0.00 in 0.07 in 1.58 in (1950)
Month to date precipitation 0.00 0.47  
Year to date precipitation 52.46 50.95  
Sea Level Pressure  
Sea Level Pressure 30.18 in    
Wind  
Wind Speed 4 mph (SE)    
Max Wind Speed 9 mph    
Max Gust Speed 13 mph    
Visibility 10 miles    
Events      
T = Trace of Precipitation, MM = Missing Value Source: NWS Daily Summary

Daily Weather History Graph

Daily Weather History Graph

Search for Another Location

Airport:

Trip Planner

Search our weather history database for the weather conditions in past years. The results will help you decide how hot, cold, wet, or windy it might be!

Date:

Astronomy

Dec. 07, 2013 Rise Set
Actual Time 7:07 AM EST 5:36 PM EST
Civil Twilight 6:42 AM EST 6:01 PM EST
Nautical Twilight 6:13 AM EST 6:30 PM EST
Astronomical Twilight 5:44 AM EST 6:58 PM EST
Moon 11:09 AM EST (12/7) 10:55 PM EST (12/7)
Length of Visible Light 11h 19m
Length of Day
10h 28m
Waxing Crescent, 29% of the Moon is Illuminated
Dec 7
Waxing Crescent
Dec 9
First Quarter
Dec 17
Full
Dec 25
Last Quarter
Jan 1
New

Hourly Weather History & Observations

Time (EST) Temp. Heat Index Dew Point Humidity Pressure Visibility Wind Dir Wind Speed Gust Speed Precip Events Conditions
12:53 AM 71.1 °F - 69.1 °F 93% 30.17 in 10.0 mi ESE 3.5 mph - N/A   Overcast
1:53 AM 70.0 °F - 68.0 °F 93% 30.16 in 10.0 mi SE 4.6 mph - N/A   Overcast
2:53 AM 68.0 °F - 66.9 °F 96% 30.15 in 8.0 mi East 3.5 mph - N/A   Clear
3:53 AM 68.0 °F - 66.0 °F 93% 30.16 in 5.0 mi ESE 3.5 mph - N/A   Clear
4:53 AM 66.9 °F - 64.9 °F 93% 30.16 in 10.0 mi ESE 3.5 mph - N/A   Clear
5:53 AM 64.9 °F - 64.0 °F 97% 30.17 in 10.0 mi Calm Calm - N/A   Clear
6:53 AM 64.0 °F - 63.0 °F 96% 30.18 in 10.0 mi SE 4.6 mph - N/A   Clear
7:53 AM 66.9 °F - 64.9 °F 93% 30.21 in 10.0 mi ESE 3.5 mph - N/A   Clear
8:53 AM 71.1 °F - 66.9 °F 87% 30.22 in 10.0 mi SE 3.5 mph - N/A   Clear
9:53 AM 77.0 °F - 68.0 °F 74% 30.23 in 10.0 mi SE 8.1 mph - N/A   Clear
10:53 AM 79.0 °F - 66.9 °F 66% 30.22 in 10.0 mi SSE 5.8 mph - N/A   Clear
11:53 AM 82.0 °F 84.1 °F 66.0 °F 58% 30.21 in 10.0 mi WSW 4.6 mph - N/A   Scattered Clouds
12:53 PM 80.1 °F 82.1 °F 66.0 °F 62% 30.18 in 10.0 mi WSW 8.1 mph - N/A   Clear
1:53 PM 80.1 °F 81.9 °F 64.9 °F 60% 30.15 in 10.0 mi WSW 8.1 mph - N/A   Clear
2:53 PM 79.0 °F - 64.0 °F 60% 30.14 in 10.0 mi WSW 6.9 mph - N/A   Clear
3:53 PM 78.1 °F - 66.0 °F 66% 30.14 in 10.0 mi West 6.9 mph - N/A   Clear
4:53 PM 75.9 °F - 66.0 °F 71% 30.14 in 10.0 mi West 4.6 mph - N/A   Clear
5:53 PM 72.0 °F - 66.0 °F 81% 30.14 in 10.0 mi WNW 3.5 mph - N/A   Clear
6:53 PM 71.1 °F - 66.0 °F 84% 30.16 in 10.0 mi Calm Calm - N/A   Clear
7:53 PM 69.1 °F - 64.9 °F 87% 30.17 in 10.0 mi Calm Calm - N/A   Clear
8:53 PM 66.9 °F - 64.0 °F 90% 30.18 in 10.0 mi Calm Calm - N/A   Clear
9:53 PM 68.0 °F - 64.9 °F 90% 30.19 in 10.0 mi NE 3.5 mph - N/A   Clear
10:53 PM 68.0 °F - 64.9 °F 90% 30.19 in 10.0 mi NE 3.5 mph - N/A   Clear
11:53 PM 68.0 °F - 64.0 °F 87% 30.19 in 10.0 mi ENE 4.6 mph - N/A   Clear